Location: Boiro
(42.6475°N, 8.8834°W)
Time: 01:36:16
(UTC+01:00)

Explorer 7 - Pass Details

Date: 05 December 2021
Orbit: 483 x 674 km, 50.3° (Epoch: 23 January)

Event Time Altitude Azimuth Distance (km) Brightness Sun altitude
Rises 11:17:21 0° 300° (WNW) 2,681 9.8 18.5°
Reaches altitude 10° 11:19:43 10° 308° (NW) 1,758 8.9 18.7°
Maximum altitude 11:23:29 41° 20° (NNE) 740 7.4 19.0°
Drops below altitude 10° 11:27:06 10° 92° (E) 1,683 9.8 19.4°
Sets 11:29:19 0° 100° (E) 2,549 10.8 19.6°
